User: anonymous   Login
Location: Unspecified
(0.0000°N, 0.0000°E)
Time: 00:54:34
(UTC+00:00)
Language:

USA 162 - Orbit

View from above orbital plane
View from above orbital plane
View from above satellite
View from above satellite

Ground track
Ground track

The orbit data is extracted from the following two-line orbital elements,

1 26948U 01046A   18309.80400731 0.00000000  00000-0  00000-0 0    07
2 26948   9.9900  49.6605 0012390 171.3836 188.6164  1.00270000    06
Epoch (UTC): 05 November 2018 19:17:46
Eccentricity: 0.0012390
inclination: 9.9900°
perigee height: 35734 km
apogee height: 35839 km
right ascension of ascending node: 49.6605°
argument of perigee: 171.3836°
revolutions per day: 1.00270000
mean anomaly at epoch: 188.6164°
orbit number at epoch: 0

The dashed part of the orbit path shows where the satellite is in the earth's shadow,  

DLR